Seward, AK

1:40 AM AKST on January 24, 2017 (GMT -0900)
Seward

Weather History for PAWD - August, 2013

Change the Weather History Date:

Tuesday, August 20, 2013

  Actual Average Record
Temperature  
Mean Temperature 54 °F -  
Max Temperature 59 °F 61 °F 79 °F (1977)
Min Temperature 51 °F 49 °F 40 °F (1982)
Degree Days  
Heating Degree Days 11    
Growing Degree Days 4 (Base 50)    
Moisture  
Dew Point 52 °F    
Average Humidity 95    
Maximum Humidity 100    
Minimum Humidity 81    
Precipitation  
Precipitation 0.09 in - - ()
Sea Level Pressure  
Sea Level Pressure 29.85 in    
Wind  
Wind Speed 1 mph (South)    
Max Wind Speed 12 mph    
Max Gust Speed 16 mph    
Visibility 7 miles    
Events Rain    
Averages and records for this station are not official NWS values.
T = Trace of Precipitation, MM = Missing Value Source: NWS Daily Summary

Daily Weather History Graph

Daily Weather History Graph

Search for Another Location

Airport or City:

Trip Planner

Search our weather history database for the weather conditions in past years. The results will help you decide how hot, cold, wet, or windy it might be!

Date:

Astronomy

Aug. 20, 2013 Rise Set
Actual Time 6:24 AM AKDT 9:35 PM AKDT
Civil Twilight 5:35 AM AKDT 10:24 PM AKDT
Nautical Twilight 4:26 AM AKDT 11:32 PM AKDT
Astronomical Twilight 2:33 AM AKDT 1:28 AM AKDT
Moon 8:51 PM AKDT (8/20) 6:16 AM AKDT (8/20)
Length of Visible Light 16h 48m
Length of Day
15h 10m
Full, 100% of the Moon is Illuminated
Aug 20
Full
Aug 20
Full
Aug 28
Last Quarter
Sep 5
New
Sep 12
First Quarter

Hourly Weather History & Observations

Time (AKDT) Temp. Dew Point Humidity Pressure Visibility Wind Dir Wind Speed Gust Speed Precip Events Conditions
12:04 AM 51.8 °F 51.8 °F 100% 29.81 in 1.8 mi Calm Calm - 0.00 in Rain Light Rain
12:32 AM 51.8 °F 51.8 °F 100% 29.81 in 0.8 mi North - - 0.00 in Rain Light Rain
12:41 AM 51.8 °F 51.8 °F 100% 29.81 in 1.2 mi North - - 0.00 in Rain Light Rain
12:46 AM 51.8 °F 51.8 °F 100% 29.81 in 3.0 mi North - - 0.00 in Rain Light Rain
12:53 AM 52.0 °F 51.1 °F 97% 29.81 in 8.0 mi North - - 0.00 in   Overcast
1:04 AM 51.8 °F 51.8 °F 100% 29.81 in 9.0 mi North - - 0.00 in Rain Light Rain
1:13 AM 51.8 °F 50.0 °F 94% 29.81 in 2.5 mi North - - 0.00 in   Overcast
1:27 AM 51.8 °F 51.8 °F 100% 29.81 in 9.0 mi North - - 0.00 in   Overcast
1:41 AM 51.8 °F 51.8 °F 100% 29.81 in 10.0 mi North - - 0.00 in Rain Light Rain
1:53 AM 52.0 °F 51.1 °F 97% 29.82 in 10.0 mi North - - 0.00 in Rain Light Rain
2:10 AM 51.8 °F 51.8 °F 100% 29.81 in 9.0 mi Calm Calm - 0.00 in   Overcast
2:18 AM 51.8 °F 51.8 °F 100% 29.81 in 2.5 mi Calm Calm - 0.00 in   Overcast
2:30 AM 51.8 °F 51.8 °F 100% 29.81 in 7.0 mi Calm Calm - 0.01 in Rain Light Rain
2:53 AM 53.1 °F 52.0 °F 96% 29.82 in 10.0 mi Calm Calm - 0.01 in   Overcast
3:31 AM 53.6 °F 51.8 °F 94% 29.82 in 10.0 mi Calm Calm - 0.00 in   Overcast
3:53 AM 53.1 °F 51.1 °F 93% 29.82 in 10.0 mi NW 3.5 mph - 0.00 in   Overcast
4:45 AM 51.8 °F 51.8 °F 100% 29.82 in 10.0 mi Calm Calm - N/A   Overcast
4:53 AM 52.0 °F 51.1 °F 97% 29.83 in 10.0 mi Calm Calm - N/A   Overcast
5:53 AM 52.0 °F 51.1 °F 97% 29.83 in 4.0 mi Calm Calm - 0.01 in Rain Light Rain
6:03 AM 51.8 °F 51.8 °F 100% 29.82 in 1.8 mi Calm Calm - 0.01 in Rain Light Rain
6:10 AM 51.8 °F 51.8 °F 100% 29.82 in 0.8 mi Calm Calm - 0.01 in   Overcast
6:18 AM 51.8 °F 51.8 °F 100% 29.82 in 1.2 mi Calm Calm - 0.01 in   Overcast
6:26 AM 51.8 °F 51.8 °F 100% 29.82 in 3.0 mi Calm Calm - 0.01 in   Overcast
6:53 AM 53.1 °F 52.0 °F 96% 29.83 in 9.0 mi Calm Calm - 0.01 in   Overcast
7:10 AM 53.6 °F 51.8 °F 94% 29.83 in 2.0 mi Calm Calm - 0.01 in Rain Light Rain
7:20 AM 51.8 °F 51.8 °F 100% 29.83 in 1.2 mi Calm Calm - 0.01 in Rain Light Rain
7:24 AM 51.8 °F 51.8 °F 100% 29.83 in 0.8 mi Calm Calm - 0.02 in Rain Light Rain
7:30 AM 51.8 °F 51.8 °F 100% 29.83 in 1.2 mi Calm Calm - 0.02 in Rain Light Rain
7:53 AM 53.1 °F 52.0 °F 96% 29.83 in 1.2 mi Calm Calm - 0.05 in Rain Light Rain
8:04 AM 51.8 °F 51.8 °F 100% 29.83 in 0.8 mi Calm Calm - 0.00 in Rain Light Rain
8:10 AM 53.6 °F 51.8 °F 94% 29.83 in 1.2 mi Calm Calm - 0.00 in Rain Light Rain
8:14 AM 53.6 °F 51.8 °F 94% 29.83 in 3.0 mi Calm Calm - 0.00 in Rain Light Rain
8:53 AM 53.1 °F 52.0 °F 96% 29.85 in 10.0 mi Calm Calm - 0.01 in   Overcast
9:40 AM 53.6 °F 51.8 °F 94% 29.85 in 10.0 mi Calm Calm - 0.00 in   Overcast
9:53 AM 53.1 °F 52.0 °F 96% 29.86 in 10.0 mi Calm Calm - 0.00 in   Overcast
10:53 AM 53.1 °F 52.0 °F 96% 29.87 in 10.0 mi Calm Calm - 0.00 in   Overcast
11:24 AM 53.6 °F 51.8 °F 94% 29.87 in 10.0 mi Calm Calm - N/A   Overcast
11:34 AM 51.8 °F 51.8 °F 100% 29.87 in 6.0 mi Calm Calm - N/A   Overcast
11:53 AM 53.1 °F 52.0 °F 96% 29.87 in 10.0 mi Calm Calm - N/A   Overcast
12:16 PM 53.6 °F 51.8 °F 94% 29.87 in 10.0 mi Calm Calm - N/A   Overcast
12:53 PM 54.0 °F 52.0 °F 93% 29.88 in 10.0 mi Calm Calm - N/A   Overcast
1:53 PM 57.0 °F 53.1 °F 87% 29.89 in 10.0 mi SSE 6.9 mph - N/A   Overcast
2:53 PM 57.0 °F 52.0 °F 83% 29.89 in 10.0 mi South 4.6 mph - N/A   Mostly Cloudy
3:53 PM 57.0 °F 51.1 °F 81% 29.90 in 10.0 mi SSE 4.6 mph - N/A   Overcast
4:53 PM 55.9 °F 52.0 °F 87% 29.91 in 10.0 mi SSE 8.1 mph - N/A   Overcast
5:05 PM 57.2 °F 51.8 °F 82% 29.90 in 10.0 mi SSE 8.1 mph - N/A   Overcast
5:53 PM 55.9 °F 52.0 °F 87% 29.90 in 10.0 mi South 11.5 mph - N/A   Overcast
6:53 PM 57.0 °F 51.1 °F 81% 29.90 in 10.0 mi South 9.2 mph 16.1 mph N/A   Mostly Cloudy
7:53 PM 55.0 °F 52.0 °F 89% 29.91 in 10.0 mi South 8.1 mph - N/A   Overcast
8:53 PM 55.0 °F 51.1 °F 86% 29.91 in 10.0 mi South 8.1 mph - N/A   Overcast
9:53 PM 55.0 °F 51.1 °F 86% 29.91 in 10.0 mi South 5.8 mph - N/A   Overcast
10:53 PM 55.0 °F 50.0 °F 83% 29.92 in 10.0 mi South 8.1 mph - N/A   Overcast
11:53 PM 54.0 °F 48.9 °F 83% 29.91 in 10.0 mi SSW 8.1 mph - N/A   Overcast